Muskegon, MI

5:32 AM EST on December 15, 2019 (GMT -0500)
Muskegon County

Weather History for KMKG - August, 2019

Change the Weather History Date:

Saturday, August 10, 2019

  Actual Average Record
Temperature  
Mean Temperature 72 °F 71 °F  
Max Temperature 83 °F 80 °F 95 °F (1944)
Min Temperature 60 °F 62 °F 47 °F (1972)
Degree Days  
Heating Degree Days 0 0  
Month to date heating degree days 0 0  
Since 1 June heating degree days 58 77  
Since 1 July heating degree days 1 11  
Cooling Degree Days 7 6  
Month to date cooling degree days 57 60  
Year to date cooling degree days 428 396  
Since 1 June cooling degree days 425 367  
Growing Degree Days 21 (Base 50)    
Moisture  
Dew Point 56 °F    
Average Humidity 65    
Maximum Humidity 90    
Minimum Humidity 39    
Precipitation  
Precipitation 0.00 in 0.11 in 2.30 in (1938)
Month to date precipitation 0.71 1.05  
Year to date precipitation 25.68 18.24  
Snow  
Snow 0.00 in 0.00 in - ()
Month to date snowfall 0.0 0.0  
Since 1 June snowfall 0.0 0.0  
Since 1 July snowfall 0.0 0.0  
Snow Depth 0.00 in    
Sea Level Pressure  
Sea Level Pressure 29.99 in    
Wind  
Wind Speed 4 mph (WNW)    
Max Wind Speed 13 mph    
Max Gust Speed 18 mph    
Visibility 10 miles    
Events Fog    
T = Trace of Precipitation, MM = Missing Value Source: NWS Daily Summary

Daily Weather History Graph

Daily Weather History Graph

Search for Another Location

Airport or City:

Astronomy

Aug. 10, 2019 Rise Set
Actual Time 6:44 AM EDT 8:55 PM EDT
Civil Twilight 6:13 AM EDT 9:26 PM EDT
Nautical Twilight 5:34 AM EDT 10:04 PM EDT
Astronomical Twilight 4:52 AM EDT 10:47 PM EDT
Moon 5:40 PM EDT (8/10) 2:18 AM EDT (8/10)
Length of Visible Light 15h 12m
Length of Day
14h 10m
Waxing Gibbous, 79% of the Moon is Illuminated
Aug 10
Waxing Gibbous
Aug 15
Full
Aug 23
Last Quarter
Aug 30
New
Sep 5
First Quarter

Hourly Weather History & Observations

Time (EDT) Temp. Heat Index Dew Point Humidity Pressure Visibility Wind Dir Wind Speed Gust Speed Precip Events Conditions
12:55 AM 62.1 °F - 55.9 °F 80% 29.97 in 10.0 mi Calm Calm - N/A   Clear
1:55 AM 62.1 °F - 57.0 °F 84% 29.96 in 10.0 mi Calm Calm - N/A   Clear
2:55 AM 63.0 °F - 57.9 °F 84% 29.96 in 10.0 mi Calm Calm - N/A   Clear
3:55 AM 62.1 °F - 57.0 °F 84% 29.96 in 10.0 mi Calm Calm - N/A   Clear
4:55 AM 63.0 °F - 59.0 °F 87% 29.97 in 10.0 mi Calm Calm - N/A   Clear
5:55 AM 63.0 °F - 57.9 °F 84% 29.96 in 10.0 mi Calm Calm - N/A   Partly Cloudy
6:55 AM 61.0 °F - 57.0 °F 87% 29.98 in 10.0 mi Calm Calm - N/A Fog Shallow Fog
7:55 AM 66.0 °F - 61.0 °F 84% 29.99 in 10.0 mi Calm Calm - N/A   Partly Cloudy
8:55 AM 69.1 °F - 62.1 °F 78% 30.01 in 10.0 mi NE 3.5 mph - N/A   Partly Cloudy
9:55 AM 75.0 °F - 62.1 °F 64% 30.00 in 10.0 mi WNW 3.5 mph - N/A   Partly Cloudy
10:55 AM 78.1 °F - 59.0 °F 52% 30.01 in 10.0 mi WNW 5.8 mph - N/A   Partly Cloudy
11:55 AM 80.1 °F 80.4 °F 57.0 °F 45% 30.01 in 10.0 mi WNW 6.9 mph - N/A   Scattered Clouds
12:55 PM 80.1 °F 79.9 °F 53.1 °F 39% 30.02 in 10.0 mi WNW 10.4 mph - N/A   Mostly Cloudy
1:55 PM 81.0 °F 80.5 °F 54.0 °F 39% 30.01 in 10.0 mi West 10.4 mph - N/A   Mostly Cloudy
2:55 PM 80.1 °F 79.9 °F 53.1 °F 39% 30.00 in 10.0 mi WNW 8.1 mph - N/A   Mostly Cloudy
3:55 PM 79.0 °F - 52.0 °F 39% 30.00 in 10.0 mi West 9.2 mph - N/A   Mostly Cloudy
4:55 PM 77.0 °F - 54.0 °F 45% 30.00 in 10.0 mi West 10.4 mph - N/A   Mostly Cloudy
5:55 PM 79.0 °F - 54.0 °F 42% 30.00 in 10.0 mi West 11.5 mph - N/A   Mostly Cloudy
6:55 PM 78.1 °F - 52.0 °F 40% 30.00 in 10.0 mi West 6.9 mph - N/A   Mostly Cloudy
7:55 PM 77.0 °F - 53.1 °F 43% 30.00 in 10.0 mi NW 3.5 mph - N/A   Mostly Cloudy
8:55 PM 70.0 °F - 55.9 °F 61% 30.00 in 10.0 mi NNW 3.5 mph - N/A   Mostly Cloudy
9:55 PM 66.9 °F - 57.9 °F 73% 30.01 in 10.0 mi Calm Calm - N/A   Mostly Cloudy
10:55 PM 63.0 °F - 57.0 °F 81% 30.01 in 10.0 mi Calm Calm - N/A   Mostly Cloudy
11:55 PM 62.1 °F - 57.0 °F 84% 30.01 in 10.0 mi Calm Calm - N/A   Clear